Dewpoint
33 34 34 35 37 40 40 41 41 40 40 38 37 38 37 37 37 37 36 36 36 35 35 36 37 38 39 41 44 47 45 46 45 45 45 46 48 54 54 54 54 53 52
34 34 33 34 36 38 38 40 40 41 40 38 37 37 36 35 36 36 35 35 34 33 34 34 35 36 38 41 42 43 45 44 45 44 43 43 44 54 53 53 53 53 53
34 34 33 33 34 36 38 38 39 39 38 38 37 35 33 33 33 34 34 34 34 33 34 34 34 36 36 38 39 40 43 44 44 44 43 42 43 46 53 53 52 52 53
34 34 33 32 33 35 36 35 36 37 37 36 35 34 33 34 32 34 33 32 32 32 32 33 33 34 35 36 36 38 39 41 43 43 42 42 43 45 50 50 50 51 51
34 34 33 33 33 35 34 34 34 34 34 34 34 33 32 31 30 33 34 33 31 31 31 32 32 34 35 35 36 35 35 38 40 42 40 41 42 44 46 49 48 49 50
34 33 33 33 33 33 32 32 32 33 31 31 31 32 30 30 31 32 34 34 31 30 30 31 31 32 33 33 33 33 34 35 37 39 40 41 42 44 44 46 46 46 43
34 33 32 33 32 31 32 32 31 30 30 30 29 31 31 30 29 32 35 35 32 31 30 30 30 30 31 30 31 32 33 35 35 38 39 42 42 43 44 43 45 45 42
32 32 32 32 31 31 31 31 30 30 29 29 29 30 30 28 30 33 34 34 33 30 30 31 30 30 30 31 29 29 31 33 34 36 38 42 43 44 44 44 43 43 44
31 31 31 30 30 30 30 29 29 29 29 28 28 31 31 29 30 32 33 33 32 29 31 33 32 30 30 30 30 29 29 30 32 34 36 40 43 44 44 43 40 40 38
31 31 31 30 30 29 29 29 29 28 28 28 28 28 28 28 29 31 32 32 31 31 32 31 30 30 30 30 30 29 28 28 30 30 32 35 41 43 43 42 40 38 38
31 31 31 30 30 29 29 29 29 28 28 28 27 27 27 27 27 29 31 31 30 30 29 28 28 29 29 29 29 29 29 30 30 31 31 33 37 40 41 41 40 38 37
35 31 30 30 30 29 29 29 29 28 27 27 26 26 26 27 29 30 31 31 31 29 27 29 29 29 28 28 29 29 30 30 31 30 31 31 34 37 39 40 40 39 39
35 34 32 30 30 29 29 29 27 27 27 26 25 25 25 26 29 30 31 32 31 29 28 29 29 28 27 28 29 30 30 30 30 30 30 31 34 37 37 37 37 37 37
30 32 33 33 31 29 29 28 27 26 24 26 26 24 24 25 28 28 30 32 32 29 28 29 28 28 27 27 28 29 29 30 30 30 30 32 34 36 36 36 35 34 32
29 29 30 32 30 30 30 28 27 26 26 25 26 26 26 25 27 29 31 31 31 30 30 28 27 27 27 27 27 28 29 29 28 29 31 31 32 34 35 35 35 34 33
25 29 29 30 30 30 29 29 30 28 27 28 29 28 28 28 27 28 29 29 30 30 28 27 27 26 25 26 26 26 27 27 28 29 30 31 32 33 34 34 34 34 32
24 25 28 30 30 29 29 28 27 30 30 29 28 29 27 26 26 28 27 29 30 31 28 27 27 26 25 27 27 27 26 27 29 29 30 31 32 33 33 33 32 33 32
24 23 24 25 25 27 28 28 28 27 26 28 31 28 28 28 27 27 26 27 26 27 27 27 27 28 27 27 27 27 26 28 28 29 30 31 32 33 32 32 32 32 32
21 21 21 22 24 25 26 27 27 27 27 27 27 26 26 25 27 23 26 25 23 24 25 25 27 30 29 28 28 28 27 27 28 29 30 31 31 32 32 32 32 32 31
19 18 17 17 18 20 23 24 24 24 23 24 25 25 25 23 23 22 22 24 24 23 24 23 24 27 30 29 28 28 27 27 28 29 29 31 31 31 31 31 32 31 30
16 14 13 13 13 14 19 19 20 21 21 21 21 21 21 22 20 22 22 22 23 23 24 24 23 24 29 30 28 28 27 27 28 29 29 30 31 30 31 32 31 31 30
14 14 13 13 13 13 14 15 15 16 16 16 16 16 16 17 18 20 21 21 21 22 23 25 24 24 27 27 29 28 27 27 27 28 29 30 30 31 31 31 31 30 29
10 11 13 13 13 14 14 15 15 15 15 15 15 15 16 19 19 18 19 19 20 21 22 23 23 24 23 24 28 30 28 27 28 29 28 29 29 30 30 30 29 28 28
9 11 12 12 13 13 14 14 14 14 14 15 14 15 15 16 16 16 17 17 18 18 20 20 22 23 21 22 25 27 30 29 30 29 29 29 29 30 30 29 28 28 28
8 8 8 12 10 10 11 13 14 14 13 14 14 14 15 15 16 17 16 17 17 17 18 19 21 20 20 20 21 24 28 30 28 29 29 29 30 29 29 28 28 28 28
8 7 7 7 8 9 9 10 9 10 12 13 13 15 15 16 16 17 16 16 15 16 17 18 18 18 17 19 22 25 24 28 28 29 30 29 29 29 29 28 28 27 27
Wind_Speed
3 5 8 9 9 9 10 9 10 9 4 5 8 10 12 13 15 11 12 11 13 14 15 15 17 19 16 16 17 14 14 13 25 16 8 15 30 30 30 36 36 40 40
3 4 7 9 9 9 10 9 9 9 3 5 7 9 11 13 12 12 13 13 12 13 13 15 17 16 19 15 14 19 15 13 22 18 8 10 17 27 31 38 34 36 38
5 7 9 11 11 11 10 9 9 10 7 6 8 10 13 13 14 13 12 13 14 13 12 13 15 17 17 16 17 15 16 17 20 18 13 6 10 17 27 35 35 38 36
8 9 11 12 12 11 10 9 11 9 9 6 8 10 11 12 14 12 15 16 16 15 13 12 13 14 18 19 18 16 16 18 16 15 12 10 3 15 13 28 28 33 35
13 14 16 14 12 11 11 8 10 11 8 5 7 8 9 11 10 15 14 14 16 15 14 12 12 14 16 20 17 19 21 16 16 15 8 5 5 10 9 14 20 24 30
17 18 15 13 12 11 11 10 9 10 9 8 8 9 9 9 13 16 15 13 14 14 15 15 15 13 14 18 20 23 19 17 18 13 7 3 7 10 4 10 12 18 14
18 19 16 14 14 13 12 10 10 10 9 8 9 8 9 8 12 14 14 12 13 13 14 15 16 13 13 14 21 23 20 18 16 14 15 9 9 8 10 6 18 20 11
21 21 19 17 17 15 13 13 11 10 9 8 9 9 11 8 12 13 13 12 12 13 14 15 16 16 15 14 15 17 20 19 19 17 19 14 12 8 14 11 10 8 13
25 24 23 20 19 18 16 15 12 9 7 8 9 7 8 8 11 12 12 10 11 13 13 13 14 20 18 21 18 17 18 17 17 20 23 20 12 10 10 15 15 19 10
25 26 23 21 21 21 19 16 13 9 7 6 9 8 9 9 11 11 11 8 10 11 8 9 11 12 20 21 18 17 20 18 18 24 21 19 13 9 16 15 20 21 20
22 23 23 22 23 22 20 15 15 12 9 7 7 9 9 9 9 11 9 7 7 9 11 11 10 12 16 19 18 16 16 19 18 13 16 14 14 9 13 12 16 25 22
25 26 26 23 21 18 19 17 14 13 11 10 6 9 8 9 10 11 9 7 7 7 11 10 11 15 17 16 17 15 19 17 14 12 10 13 11 8 10 11 13 13 20
23 24 22 18 17 18 19 19 16 13 13 11 10 8 8 11 11 13 13 12 9 7 9 10 13 13 13 12 12 15 14 13 14 13 12 11 10 10 7 9 9 15 11
26 27 22 20 21 17 16 16 17 16 14 13 12 8 8 8 10 11 10 11 10 9 9 10 11 13 9 9 8 8 8 11 13 14 13 11 10 10 12 11 12 17 14
24 24 24 17 15 17 16 17 17 16 14 13 11 8 8 8 8 9 10 10 11 10 10 6 6 9 10 10 11 11 9 11 11 12 14 13 12 13 13 12 14 18 17
25 24 20 16 9 5 6 11 12 14 13 14 12 11 10 8 9 10 12 14 14 12 5 7 9 11 12 14 14 14 12 14 14 14 13 13 14 15 16 14 14 21 20
23 25 25 17 13 10 9 10 10 6 9 14 12 10 9 9 9 8 12 13 12 10 7 11 9 10 12 11 13 13 16 15 14 14 15 13 14 14 18 18 16 20 18
22 22 21 19 20 20 15 10 9 8 10 10 6 7 8 10 7 7 10 8 9 8 9 9 9 10 10 11 12 14 16 16 14 13 13 13 15 16 17 21 21 23 19
19 18 20 19 18 18 15 14 12 11 9 4 3 3 2 5 5 7 7 6 9 9 10 11 12 10 9 10 11 13 15 16 17 17 13 13 13 13 15 18 19 24 21
15 19 19 18 17 18 18 14 14 13 12 11 4 8 7 7 7 8 7 5 6 8 11 12 13 14 13 9 10 12 14 15 15 14 15 14 12 12 14 15 17 22 22
14 17 20 20 18 17 14 12 12 12 11 10 10 12 14 10 15 12 13 9 8 9 10 10 13 14 15 11 10 11 13 14 14 13 14 14 10 11 11 14 16 18 20
19 19 19 19 19 18 17 15 14 12 12 12 12 11 15 13 13 13 13 13 12 10 11 11 12 13 11 16 15 12 13 15 14 12 13 14 11 10 11 13 14 16 18
21 21 20 18 18 19 18 15 14 13 13 13 13 13 12 13 14 14 14 15 14 12 10 11 12 11 13 14 15 13 14 14 14 13 13 13 12 10 11 12 14 17 19
20 21 21 20 18 18 16 15 14 15 15 14 15 16 15 15 17 17 16 17 15 14 12 12 12 13 15 15 14 15 14 13 12 12 13 13 12 12 12 12 15 18 19
19 20 21 18 17 18 19 16 14 13 14 15 15 14 14 14 13 14 15 15 16 15 14 12 12 13 15 18 20 20 20 17 15 14 12 12 12 14 13 14 16 17 18
20 20 20 19 18 17 17 14 16 18 17 15 15 14 14 13 14 16 16 15 15 15 14 12 13 16 18 16 17 18 24 21 16 13 12 12 12 13 13 15 18 18 20
Wind_Direction
12 355 335 324 321 306 295 291 309 290 339 358 351 341 349 345 339 343 345 345 343 339 333 327 314 313 314 307 301 265 270 276 273 261 277 287 280 186 184 185 187 182 182
287 283 305 316 301 291 293 298 314 314 347 327 331 329 335 327 325 318 336 334 332 333 327 324 318 318 310 313 320 301 288 293 293 269 244 268 281 216 182 187 186 182 183
255 285 302 302 289 283 284 299 308 299 310 319 322 328 322 320 317 310 313 317 320 320 316 318 315 318 318 316 323 316 301 301 310 243 232 216 254 300 200 190 183 182 181
258 265 268 269 265 264 277 296 305 304 312 313 326 329 318 318 316 307 315 317 318 316 319 316 314 320 316 329 325 333 318 308 313 254 217 223 232 267 245 193 181 183 180
245 252 254 256 260 263 269 279 295 297 296 304 316 311 312 314 317 321 313 310 314 316 318 318 321 319 329 331 333 330 323 316 331 270 252 176 177 239 237 198 184 178 181
236 247 257 257 259 259 261 270 279 283 290 292 303 300 312 312 314 316 320 306 309 314 318 320 325 328 339 327 329 325 320 331 330 316 267 247 233 217 231 162 157 167 158
239 247 252 251 250 253 253 249 253 268 277 288 297 298 299 305 311 322 319 305 300 302 312 315 320 324 334 333 330 332 329 332 321 337 300 251 240 216 165 172 168 166 158
241 243 244 241 244 247 245 242 246 254 269 288 296 285 287 292 317 318 320 307 301 311 315 318 319 323 330 336 332 323 324 330 330 339 325 302 275 203 188 175 148 133 113
243 242 242 234 234 237 241 242 238 237 269 283 297 317 315 316 309 310 317 310 306 308 314 316 331 324 327 336 333 330 323 319 326 334 336 330 293 228 164 126 134 138 130
252 248 240 234 229 230 232 233 234 226 227 252 279 291 304 307 305 307 311 300 313 309 298 301 301 309 318 323 325 321 315 319 328 327 329 335 308 229 170 166 151 154 148
272 261 247 234 227 225 228 222 227 229 229 231 269 279 288 293 298 297 303 303 304 308 305 313 316 309 313 315 320 311 301 303 308 308 313 319 314 226 186 168 174 156 165
323 296 273 241 221 217 223 221 222 220 228 228 241 270 281 289 296 307 302 300 300 301 303 293 302 310 315 314 306 302 307 311 304 303 300 305 307 234 196 175 184 178 176
316 314 290 278 253 219 211 212 212 216 227 231 220 243 275 294 294 301 301 289 283 303 303 292 296 308 311 309 302 303 313 311 309 298 291 283 270 244 184 157 112 108 107
331 322 294 266 250 236 207 205 208 208 224 238 239 220 254 280 287 301 294 289 269 292 301 300 302 303 319 316 316 322 308 303 296 293 284 281 258 223 192 170 154 140 127
329 328 320 280 248 232 222 213 211 214 206 222 238 241 246 263 279 298 306 313 298 302 306 294 330 330 331 339 339 339 328 317 304 303 286 269 252 215 195 181 167 157 163
338 327 326 315 293 252 252 257 259 244 228 226 227 238 260 250 285 317 330 328 321 318 312 312 321 347 338 334 334 335 334 319 317 311 296 254 241 212 192 188 174 176 165
342 345 339 322 324 301 261 232 228 252 276 263 246 247 259 271 304 325 337 337 333 345 317 319 316 340 334 319 323 323 322 318 312 307 305 278 240 218 191 187 179 180 170
340 343 348 344 347 339 314 295 285 261 267 262 212 229 271 300 305 339 350 2 355 343 327 322 322 306 324 321 315 312 317 317 310 308 299 279 235 211 196 190 183 182 170
340 340 342 340 333 326 323 325 313 294 284 268 278 291 275 340 314 344 352 11 344 333 333 330 323 313 305 316 310 305 307 310 305 307 306 276 244 208 205 199 182 183 172
328 331 333 331 330 341 343 349 352 2 2 347 351 343 314 347 322 326 332 329 335 332 331 325 325 321 309 298 309 304 301 307 304 305 309 288 251 218 205 195 188 185 180
328 325 321 316 314 315 315 323 331 340 332 332 335 335 341 333 317 314 312 311 303 308 307 324 321 315 315 302 311 298 293 302 299 297 304 287 244 223 208 194 187 186 178
324 318 313 309 308 306 304 306 302 299 298 296 298 299 303 304 306 305 300 299 299 290 289 290 302 302 319 318 302 299 294 300 299 292 300 284 252 222 202 190 182 172 171
314 309 306 303 303 303 300 296 298 297 292 287 288 287 288 287 293 294 291 291 294 293 291 288 297 307 307 305 311 297 293 292 292 291 295 280 250 225 203 190 176 169 170
320 319 315 308 300 297 293 292 291 295 293 290 288 287 284 284 282 287 291 290 287 288 291 293 289 298 304 306 304 311 290 275 281 279 281 279 239 218 200 186 178 175 170
324 323 322 320 328 326 326 309 292 290 291 291 287 286 284 285 287 285 291 293 293 291 290 289 293 298 298 304 304 302 301 283 278 273 273 268 243 209 194 181 177 174 171
321 320 318 315 312 309 308 303 310 302 292 282 278 276 278 284 284 283 288 294 297 297 290 284 294 300 304 308 304 314 319 300 283 272 268 257 241 210 193 181 176 176 173